[[{"header":{"parameterUnit":"m.s-1","parameterCategory":1,"la1":30.2991,"la2":30.254,"lo1":-89.0895,"lo2":-89.0444,"dy":0.0017,"dx":0.0017,"nx":28,"ny":28,"refTime":"2023-07-21T21:00:00:Z","depth":0,"parameterNumber":2,"parameterNumberName":"U-component_of_WINDS"},"data":[0,0,0,0,0,0,0,0,0,0,0,0,0,0,0,0,0,0,0,0,0,0,0,0,0,0,0,0,0,0,0,0,0,0,0,0,0,0,0,0,0,0,0,0,0,0,0,0,0,0,0,0,0,0,0,0,0,0,1.5883,1.5885,0,1.6031,1.6033,1.6034,1.6088,1.6087,1.6087,1.6087,1.6238,1.6243,1.6247,0,0,0,0,0,0,0,0,0,0,0,0,0,1.5647,1.5651,1.5883,1.5885,1.5887,1.6031,1.6033,1.6035,1.6088,1.6087,1.6087,1.6086,1.6237,1.6242,1.6248,0,0,0,0,0,0,0,0,0,0,0,0,0,1.5768,1.5652,1.5883,1.5931,1.5936,1.603,1.6033,1.6035,1.6088,1.6087,1.6087,1.6086,1.6235,1.6242,1.6248,1.6305,0,0,1.6269,1.6272,0,0,0,0,0,0,0,0,1.5761,1.5776,1.5922,1.5927,1.5934,1.604,1.6005,1.6126,1.6088,1.6031,1.6086,1.6086,1.6173,1.6185,1.6214,1.6313,1.6319,1.627,1.6274,1.6277,1.6279,0,0,0,0,0,0,0,1.5752,1.577,1.5941,1.5924,1.5931,1.5945,1.5961,1.6028,1.6104,1.6036,1.604,1.6057,1.6176,1.6208,1.6218,1.6321,1.627,1.6276,1.628,1.6282,1.6473,1.6474,0,0,0,0,0,0,1.5736,1.5763,1.5937,1.5946,1.5844,1.595,1.5968,1.6007,1.6104,1.6118,1.6057,1.6059,1.6197,1.621,1.6224,1.6296,1.6277,1.6283,1.6287,1.6472,1.6473,1.6474,0,0,0,0,0,0,1.5731,1.5751,1.5931,1.5856,1.588,1.5955,1.5998,1.601,1.6042,1.612,1.6134,1.6075,1.6196,1.6214,1.6285,1.6302,1.6286,1.6292,1.6471,1.6472,1.6474,1.6442,0,0,0,0,0,0,1.5724,1.5749,1.5771,1.5856,1.5883,1.5989,1.5999,1.6014,1.6053,1.6056,1.6141,1.6154,1.6197,1.6274,1.6291,1.6311,1.6298,1.647,1.6472,1.6473,1.6442,1.6442,1.6442,0,0,0,0,0,1.5715,1.5756,1.5772,1.5793,1.5913,1.599,1.6006,1.6055,1.6054,1.6077,1.6128,1.6151,1.6298,1.6281,1.6301,1.6323,1.6469,1.6471,1.6473,1.6441,1.6442,1.6442,0,0,0,0,0,0,1.5672,1.5768,1.5787,1.5857,1.5914,1.5999,1.6029,1.6054,1.6113,1.6114,1.6172,1.6191,1.6256,1.6297,1.6276,1.6383,1.6385,1.6391,1.6354,1.6355,1.6355,1.6344,1.6303,0,0,0,0,0,1.5671,1.5725,1.5806,1.586,1.5888,1.5953,1.5989,1.6022,1.6084,1.6109,1.6164,1.6224,1.6284,1.6322,1.6381,1.6448,1.6467,1.6473,1.6473,1.6473,1.6478,1.6516,1.6519,1.6482,1.6482,1.6482,0,0,1.5668,1.5728,1.5758,1.5853,1.5902,1.5957,1.5974,1.6031,1.6072,1.6118,1.6187,1.623,1.6301,1.6369,1.6402,1.6405,1.6493,1.6476,1.6476,1.648,1.6518,1.6522,1.6525,1.6483,1.6483,1.6483,0,0,1.5692,1.5743,1.5793,1.5841,1.5915,1.5958,1.597,1.605,1.608,1.6151,1.6186,1.6236,1.6337,1.6386,1.6424,1.6466,1.6489,1.6483,1.6485,1.6521,1.6524,1.6527,1.6541,1.6546,1.6488,1.6488,1.6488,0,1.568,1.5764,1.5816,1.5871,1.5911,1.5955,1.6006,1.605,1.6139,1.6166,1.6168,1.6296,1.6347,1.6427,1.6437,1.6467,1.6482,1.6474,1.652,1.6523,1.6527,1.6541,1.6546,1.6487,1.6487,1.6487,1.6487,0,1.5745,1.5803,1.5834,1.5919,1.5963,1.6016,1.6075,1.6114,1.6143,1.6185,1.6256,1.6319,1.6391,1.6412,1.6442,1.6497,1.6496,1.6508,1.6511,1.6528,1.6542,1.6548,1.6485,1.6485,1.6486,1.6486,0,0,1.5745,1.5858,1.5868,1.5907,1.5991,1.6037,1.6091,1.6162,1.6193,1.6253,1.63,1.6385,1.6397,1.644,1.6475,1.6506,1.6534,1.6515,1.6517,1.6516,1.6598,1.6588,1.6594,1.6551,1.6552,1.6553,1.6592,0,1.5779,1.5879,1.5927,1.6006,1.6059,1.6101,1.6149,1.6206,1.6247,1.6299,1.6345,1.6403,1.6415,1.6441,1.6474,1.6524,1.6552,1.6522,1.6595,1.6597,1.6575,1.6601,1.6591,1.6625,1.6598,1.6599,1.66,0,1.5833,1.5892,1.5976,1.6053,1.6077,1.6119,1.6187,1.6236,1.6301,1.6329,1.6377,1.6411,1.647,1.6469,1.6551,1.6529,1.6562,1.6591,1.6594,1.6602,1.6599,1.6609,1.6637,1.6642,1.6609,1.6609,1.6608,0,1.5823,1.5924,1.5987,1.6019,1.6111,1.614,1.618,1.6244,1.6283,1.6343,1.6369,1.6434,1.647,1.652,1.6571,1.6565,1.6648,1.6651,1.6672,1.6671,1.6687,1.6685,1.6719,1.6709,1.6709,1.6709,1.6709,0,1.5856,1.5905,1.5984,1.6023,1.6079,1.6134,1.6189,1.6232,1.6288,1.6336,1.6377,1.642,1.6485,1.6537,1.6577,1.6638,1.6654,1.6678,1.6688,1.6674,1.6671,1.6696,1.6695,1.671,1.671,1.671,1.671,0,1.5855,1.591,1.5981,1.6063,1.6084,1.6122,1.6192,1.6231,1.6274,1.6334,1.6351,1.6419,1.6482,1.6538,1.6622,1.6649,1.6711,1.6724,1.6689,1.6694,1.6712,1.6709,1.6763,1.6773,1.6756,1.6756,1.6756,0,1.5872,1.5911,1.5996,1.6031,1.607,1.6125,1.6165,1.6221,1.6261,1.6338,1.6367,1.6433,1.6489,1.6588,1.6645,1.6709,1.6723,1.6737,1.6733,1.6717,1.6723,1.6719,1.6723,1.6737,1.6737,1.6737,1.6737,0,1.5895,1.5921,1.5977,1.6042,1.6089,1.6143,1.6199,1.6225,1.6291,1.6334,1.6399,1.6442,1.6527,1.6592,1.6662,1.6703,1.6731,1.6738,1.6746,1.6732,1.671,1.6721,1.6688,1.6736,1.6736,1.6736,1.6736,1.6736,1.5904,1.594,1.6006,1.6067,1.6114,1.6165,1.6206,1.6254,1.6309,1.6383,1.6412,1.6478,1.6542,1.6639,1.668,1.6732,1.6737,1.6749,1.6752,1.6754,1.6751,1.6702,1.6746,1.6746,1.6746,1.6746,1.6746,0,1.5929,1.5973,1.6029,1.6105,1.6153,1.6175,1.6238,1.6276,1.6333,1.6391,1.6445,1.6519,1.6582,1.6644,1.671,1.674,1.6754,1.6756,1.6754,1.6763,1.6744,1.673,1.6743,1.6743,1.6743,1.6743,1.6743,1.6743,1.5947,1.601,1.6043,1.6129,1.6173,1.6238,1.6272,1.6319,1.6365,1.6446,1.6499,1.6538,1.6598,1.6669,1.6727,1.6744,1.6766,1.6764,1.6783,1.6764,1.6764,1.6764,1.6751,1.6768,1.6768,1.6798,1.6798,1.6799]},{"header":{"parameterUnit":"m.s-1","parameterCategory":1,"la1":30.2991,"la2":30.254,"lo1":-89.0895,"lo2":-89.0444,"dy":0.0017,"dx":0.0017,"nx":28,"ny":28,"refTime":"2023-07-21T21:00:00:Z","depth":0,"parameterNumber":3,"parameterNumberName":"V-component_of_WINDS"},"data":[0,0,0,0,0,0,0,0,0,0,0,0,0,0,0,0,0,0,0,0,0,0,0,0,0,0,0,0,0,0,0,0,0,0,0,0,0,0,0,0,0,0,0,0,0,0,0,0,0,0,0,0,0,0,0,0,0,0,4.7259,4.7258,0,4.7219,4.7218,4.7218,4.7157,4.7155,4.7154,4.7153,4.7112,4.7112,4.7112,0,0,0,0,0,0,0,0,0,0,0,0,0,4.7282,4.7282,4.7259,4.7258,4.7258,4.7219,4.7218,4.7218,4.7157,4.7155,4.7154,4.7153,4.7112,4.7112,4.7112,0,0,0,0,0,0,0,0,0,0,0,0,0,4.726,4.7282,4.7259,4.7223,4.7219,4.7219,4.7218,4.7218,4.7157,4.7155,4.7154,4.7152,4.7112,4.7112,4.7112,4.7144,0,0,4.7112,4.7112,0,0,0,0,0,0,0,0,4.7262,4.7259,4.7228,4.7225,4.7221,4.7191,4.7212,4.7193,4.7157,4.7181,4.7153,4.7151,4.714,4.7137,4.7134,4.7143,4.7141,4.7112,4.7112,4.7112,4.7112,0,0,0,0,0,0,0,4.7263,4.7261,4.7243,4.7228,4.7224,4.7208,4.7203,4.7208,4.717,4.7178,4.7174,4.717,4.7138,4.7134,4.7132,4.714,4.7112,4.7112,4.7112,4.7112,4.7173,4.7175,0,0,0,0,0,0,4.727,4.7262,4.7244,4.7242,4.7238,4.7209,4.7204,4.7202,4.717,4.7163,4.7171,4.7167,4.7135,4.7132,4.713,4.7165,4.7112,4.7112,4.7112,4.7172,4.7174,4.7175,0,0,0,0,0,0,4.7271,4.7269,4.7246,4.7251,4.7247,4.7211,4.721,4.7202,4.7198,4.7164,4.7157,4.7175,4.7133,4.7131,4.7141,4.7163,4.7112,4.7112,4.717,4.7172,4.7175,4.7236,0,0,0,0,0,0,4.7272,4.727,4.7281,4.7252,4.7247,4.7258,4.7211,4.7203,4.7199,4.7193,4.7165,4.7159,4.7132,4.7142,4.7141,4.7162,4.7112,4.7167,4.7171,4.7174,4.7232,4.724,4.7248,0,0,0,0,0,4.7273,4.73,4.7282,4.728,4.7261,4.7259,4.7256,4.7224,4.7201,4.7212,4.719,4.716,4.7161,4.7143,4.7142,4.7163,4.7166,4.717,4.7174,4.7228,4.7239,4.7247,0,0,0,0,0,0,4.7333,4.7296,4.7275,4.7294,4.728,4.7249,4.7262,4.7236,4.7228,4.7223,4.7184,4.7178,4.7194,4.718,4.7161,4.7193,4.7159,4.7163,4.7201,4.7211,4.7218,4.7221,4.7111,0,0,0,0,0,4.7349,4.7351,4.7318,4.7337,4.7332,4.7298,4.7296,4.7273,4.7257,4.7251,4.7229,4.7215,4.7212,4.7211,4.7206,4.723,4.7223,4.7244,4.7252,4.7259,4.7262,4.7273,4.7282,4.7188,4.7188,4.7188,0,0,4.7381,4.7361,4.7364,4.7349,4.7336,4.7338,4.7294,4.7298,4.73,4.7251,4.726,4.7244,4.7225,4.7243,4.7249,4.7232,4.7286,4.7263,4.7269,4.7269,4.7278,4.7287,4.7295,4.7191,4.719,4.719,0,0,4.7441,4.7426,4.744,4.7428,4.7408,4.7386,4.7389,4.7362,4.7349,4.7358,4.7321,4.7323,4.7318,4.7306,4.73,4.7356,4.7328,4.7356,4.7396,4.7408,4.7415,4.7421,4.744,4.7448,4.7359,4.7359,4.7359,0,4.7483,4.7485,4.7451,4.7458,4.7452,4.7409,4.7423,4.7413,4.7393,4.739,4.737,4.7364,4.7348,4.7362,4.7376,4.7372,4.7375,4.7358,4.7417,4.7423,4.7428,4.7446,4.7453,4.7363,4.7362,4.7362,4.7362,0,4.7538,4.754,4.7554,4.7536,4.7532,4.7543,4.751,4.751,4.7488,4.7468,4.7477,4.7457,4.7447,4.7449,4.7427,4.7459,4.7449,4.7424,4.7389,4.7441,4.7457,4.7464,4.7368,4.7366,4.7365,4.7365,0,0,4.7633,4.7596,4.7602,4.7593,4.7568,4.7569,4.7578,4.7569,4.757,4.7558,4.7564,4.7562,4.7538,4.7531,4.7507,4.7517,4.7562,4.749,4.7489,4.7504,4.7596,4.7615,4.7623,4.7544,4.7545,4.7546,4.7597,0,4.7686,4.7699,4.7669,4.7689,4.7691,4.765,4.7658,4.7644,4.7626,4.7624,4.7604,4.7603,4.7572,4.7568,4.7576,4.7555,4.758,4.7551,4.7548,4.7549,4.7553,4.7631,4.7651,4.77,4.7604,4.7605,4.7605,0,4.775,4.7741,4.7762,4.7736,4.7736,4.7743,4.7732,4.7732,4.7715,4.7701,4.7693,4.7666,4.7672,4.764,4.7649,4.763,4.7627,4.7617,4.7618,4.7615,4.7579,4.763,4.7715,4.7722,4.7615,4.7614,4.7614,0,4.7816,4.781,4.7821,4.7815,4.7786,4.7792,4.778,4.7761,4.7758,4.7749,4.7746,4.7738,4.7733,4.7727,4.7698,4.7677,4.771,4.7675,4.7698,4.7699,4.7706,4.7705,4.7791,4.7706,4.7706,4.7706,4.7706,0,4.7879,4.7892,4.785,4.7857,4.7871,4.7837,4.7852,4.7836,4.7821,4.7824,4.7789,4.7792,4.7754,4.7753,4.7731,4.7741,4.774,4.7728,4.7722,4.773,4.7732,4.7727,4.7723,4.7708,4.7707,4.7707,4.7707,0,4.7954,4.7927,4.7936,4.7908,4.7901,4.7913,4.7889,4.7894,4.7874,4.7878,4.7877,4.7846,4.7843,4.7814,4.7805,4.779,4.7808,4.7796,4.7814,4.781,4.7834,4.7832,4.7918,4.7927,4.7838,4.7839,4.784,0,4.7995,4.8005,4.7978,4.7977,4.7967,4.7967,4.7963,4.793,4.7928,4.791,4.7917,4.7912,4.7905,4.7903,4.788,4.7873,4.7859,4.789,4.7858,4.7866,4.7858,4.7858,4.7858,4.7896,4.7898,4.7899,4.7899,0,4.807,4.8056,4.8052,4.8044,4.804,4.8032,4.8022,4.8023,4.7987,4.7986,4.7983,4.7979,4.797,4.7965,4.7954,4.7941,4.7914,4.791,4.7915,4.7923,4.7933,4.7927,4.7832,4.7908,4.7907,4.7906,4.7906,4.7905,4.8129,4.8135,4.8117,4.8114,4.8103,4.8094,4.8098,4.8078,4.8075,4.8066,4.8047,4.8047,4.803,4.8012,4.8002,4.8001,4.7985,4.7992,4.7994,4.7996,4.8001,4.7934,4.7999,4.7999,4.7999,4.7999,4.7998,0,4.8201,4.8188,4.8185,4.8172,4.817,4.8145,4.8133,4.8132,4.8132,4.8119,4.8114,4.8111,4.8106,4.8082,4.8075,4.8079,4.8066,4.8078,4.8077,4.8074,4.8016,4.8012,4.8088,4.8088,4.8088,4.8088,4.8088,4.8088,4.8238,4.8248,4.8232,4.8237,4.8223,4.8223,4.8218,4.8209,4.8198,4.8196,4.8192,4.8177,4.816,4.8151,4.8145,4.8138,4.8137,4.8153,4.8142,4.8087,4.8078,4.807,4.8066,4.8153,4.8153,4.82,4.82,4.8201]}]]